FENGYUN 1C DEB

Satellite information

Favourite Embed

Satellite Type and Status

DEBRISIN ORBIT

Key statistics

Satellite FENGYUN 1C DEB at a glance.

Uptime

9495

Days in orbit

Revolutions

≈ 14.7

Per day

Orbit

SSO

Sun Synchronous Orbit

Inclination

98.9

Latest

Satellite identification and parameters

Extended collection of information and parameters for FENGYUN 1C DEB.

Object identification

Identified? True

Debris? True

Object name: FENGYUN 1C DEB

International designator: 1999-025DMH

Object number (NORAD): 35153

Object ID (CCSDS): 35153

Country: PEOPLES REPUBLIC OF CHINA (PRC)

Current information (Y/N): Y

RCS size: SMALL

Orbital parameters

Period: 97.813 minutes

Inclination: 98.9317 deg

SMA: 7032.207 km

Apoapsis: 777.286 km

Periapsis: 530.858 km

RAAN: 358.3715 deg

Eccentricy: 0.0175214

Argument of periapsis: 46.3073 deg

Mean anomaly: 315.2497 deg

Mean motion: 14.72194877 rev/day

Mean motion (dot): 0.00003364 rev/day2

B* drag term: 0.00042741 1/REarth

Two-line elements (TLE)

Creation date: May 7, 2025, 10:36 p.m.

Reference frame: TEME

Reference center: EARTH

Epoch: May 7, 2025, 9:34 p.m. UTC

TLE line 0: 0 FENGYUN 1C DEB

TLE line 1: 1 35153U 99025DMH 25127.89926286 .00003364 00000-0 42741-3 0 9996

TLE line 2: 2 35153 98.9317 358.3715 0175214 46.3073 315.2497 14.72194877940768

Live tracking on map

Real-time ground track for satellite FENGYUN 1C DEB.

In-orbit conjunctions

A list of the most updated potential collisions computed for object FENGYUN 1C DEB.

Target Orbit TCA Probability of collision Miss distance Type
KITSAT 3 SSO 2024-10-09 22:45:34 0.0001015735 127.0 (m) PAYLOAD

Associated space launch

Chinese polar orbiting meteorological satellite

FENGYUN 1C DEB was lifted into orbit during the mission ‘Long March 4B | Feng Yun 1C’, on board a Long March 4B space rocket.

The launch took place on May 10, 1999, 1:33 a.m. from Launch Complex 7.

For more information about the launch, click the button.

Launch to space Long March 4B | Feng Yun 1C
Long March 4B | Feng Yun 1C

Agency: N/A

Status: Launch Successful

Launch date: May 10, 1999, 1:33 a.m. UTC

Rocket: Long March 4B

Launch pad: Launch Complex 7

Location: Taiyuan Satellite Launch Center, People's Republic of China

...

Latest news about this satellite

There are no fresh news available about this satellite. Check back as we update our databases every day.


Newsletter sign-up

Weekly statistics, charts and insights to help you stay on top of the space industry.